Location: Carlingford
(46.7848°N, 67.7474°W)
Time: 06:05:06
(UTC+00:00)

Envisat - Pass Details

Date: 04 December 2022
Orbit: 763 x 765 km, 98.2° (Epoch: 27 January)

Event Time Altitude Azimuth Distance (km) Brightness Sun altitude
Rises 08:42:36 0° 15° (NNE) 3,245 6.4 -32.7°
Reaches altitude 10° 08:44:56 10° 17° (NNE) 2,314 5.6 -32.3°
Enters shadow 08:46:22 19° 19° (NNE) 1,755 5.0 -32.0°
